VLG29DF LEBL-LEGR

Flight info

Callsign VLG29DF
Flight time 1h 11m
Altitude 31000
Route LOTOS M985 BAZAS DCT VIBAS
Aircraft A320/M-SDE3FGHIRWY/LB1

Departure

Time 2026-05-04 14:32
Airport Josep Tarradellas Barcelona-El Prat Airport (LEBL)

Arrival

Time 2026-05-04 15:44
Airport F.G.L. Airport Granada-Jaén Airport (LEGR)
Time Latitude Longitude Altitude Speed Heading
2026-05-04 13:58 41.29481 2.08178 17 ft 0 kts 286°
2026-05-04 14:24 41.29483 2.08167 16 ft 2 kts 286°
2026-05-04 14:24 41.29490 2.08136 16 ft 5 kts 286°
2026-05-04 14:24 41.29518 2.08107 15 ft 6 kts
2026-05-04 14:25 41.29547 2.08156 15 ft 8 kts 64°
2026-05-04 14:25 41.29575 2.08282 16 ft 9 kts 79°
2026-05-04 14:25 41.29590 2.08365 17 ft 9 kts 70°
2026-05-04 14:26 41.29618 2.08446 17 ft 10 kts 66°
2026-05-04 14:26 41.29603 2.08523 18 ft 9 kts 139°
2026-05-04 14:26 41.29535 2.08567 16 ft 13 kts 156°
2026-05-04 14:26 41.29444 2.08622 15 ft 16 kts 155°
2026-05-04 14:27 41.29344 2.08685 19 ft 16 kts 154°
2026-05-04 14:27 41.29243 2.08745 17 ft 17 kts 156°
2026-05-04 14:27 41.29133 2.08809 16 ft 18 kts 156°
2026-05-04 14:27 41.29027 2.08874 15 ft 13 kts 155°
2026-05-04 14:28 41.28958 2.08920 18 ft 10 kts 141°
2026-05-04 14:28 41.28954 2.08996 16 ft 8 kts 67°
2026-05-04 14:28 41.28977 2.09067 17 ft 9 kts 66°
2026-05-04 14:28 41.29003 2.09142 17 ft 10 kts 65°
2026-05-04 14:29 41.29071 2.09341 17 ft 13 kts 65°
2026-05-04 14:29 41.29159 2.09597 17 ft 17 kts 65°
2026-05-04 14:30 41.29211 2.09748 18 ft 19 kts 65°
2026-05-04 14:30 41.29267 2.09905 19 ft 19 kts 59°
2026-05-04 14:30 41.29365 2.10213 15 ft 18 kts 100°
2026-05-04 14:31 41.29274 2.10303 13 ft 12 kts 154°
2026-05-04 14:31 41.29163 2.10156 17 ft 36 kts 245°
2026-05-04 14:32 41.28586 2.08493 22 ft 150 kts 246°
2026-05-04 14:32 41.28076 2.07203 443 ft 160 kts 221°
2026-05-04 14:32 41.27014 2.06763 1024 ft 171 kts 186°
2026-05-04 14:32 41.25791 2.06578 1534 ft 183 kts 187°
2026-05-04 14:33 41.24467 2.06422 1962 ft 202 kts 184°
2026-05-04 14:33 41.22976 2.06327 2368 ft 228 kts 182°
2026-05-04 14:33 41.21371 2.06203 3296 ft 226 kts 185°
2026-05-04 14:33 41.19731 2.06039 4092 ft 243 kts 185°
2026-05-04 14:34 41.17994 2.05842 4850 ft 265 kts 191°
2026-05-04 14:34 41.16210 2.04855 5648 ft 287 kts 209°
2026-05-04 14:34 41.14391 2.03537 6486 ft 308 kts 208°
2026-05-04 14:34 41.12435 2.02156 7175 ft 329 kts 208°
2026-05-04 14:35 41.10335 2.00702 7826 ft 351 kts 208°
2026-05-04 14:35 41.08173 1.99024 8264 ft 368 kts 219°
2026-05-04 14:35 41.06578 1.96348 8754 ft 378 kts 242°
2026-05-04 14:35 41.05583 1.93114 9482 ft 381 kts 250°
2026-05-04 14:36 41.04857 1.89720 10159 ft 384 kts 252°
2026-05-04 14:36 41.04126 1.86314 10780 ft 386 kts 252°
2026-05-04 14:36 41.03326 1.82915 11419 ft 388 kts 249°
2026-05-04 14:36 41.02144 1.79713 12008 ft 389 kts 234°
2026-05-04 14:37 41.00509 1.76851 12639 ft 391 kts 232°
2026-05-04 14:37 40.98836 1.74002 13268 ft 393 kts 232°
2026-05-04 14:37 40.97147 1.71140 13840 ft 396 kts 232°
2026-05-04 14:37 40.95444 1.68259 14396 ft 399 kts 232°
2026-05-04 14:38 40.93732 1.65361 14934 ft 401 kts 232°
2026-05-04 14:38 40.92008 1.62442 15451 ft 404 kts 232°
2026-05-04 14:38 40.90273 1.59504 15969 ft 407 kts 232°
2026-05-04 14:38 40.88528 1.56546 16483 ft 409 kts 232°
2026-05-04 14:39 40.86771 1.53573 16996 ft 412 kts 232°
2026-05-04 14:39 40.85002 1.50586 17500 ft 414 kts 232°
2026-05-04 14:39 40.83220 1.47580 18005 ft 417 kts 232°
2026-05-04 14:40 40.79627 1.41524 18930 ft 421 kts 232°
2026-05-04 14:40 40.77822 1.38485 19404 ft 422 kts 232°
2026-05-04 14:40 40.76010 1.35436 19861 ft 423 kts 232°
2026-05-04 14:40 40.74187 1.32377 20289 ft 424 kts 232°
2026-05-04 14:41 40.72360 1.29316 20702 ft 426 kts 232°
2026-05-04 14:41 40.70523 1.26246 21102 ft 427 kts 232°
2026-05-04 14:41 40.66815 1.20042 21877 ft 430 kts 232°
2026-05-04 14:42 40.63106 1.13843 22636 ft 432 kts 232°
2026-05-04 14:42 40.61244 1.10731 23003 ft 434 kts 232°
2026-05-04 14:42 40.59371 1.07607 23372 ft 435 kts 232°
2026-05-04 14:43 40.57490 1.04482 23698 ft 437 kts 232°
2026-05-04 14:43 40.55598 1.01350 24023 ft 438 kts 232°
2026-05-04 14:43 40.53668 0.98265 24427 ft 437 kts 230°
2026-05-04 14:43 40.51657 0.95274 24883 ft 435 kts 228°
2026-05-04 14:44 40.49600 0.92363 25360 ft 434 kts 227°
2026-05-04 14:44 40.47529 0.89502 25846 ft 432 kts 227°
2026-05-04 14:44 40.45462 0.86655 26341 ft 430 kts 227°
2026-05-04 14:44 40.43413 0.83809 26855 ft 428 kts 227°
2026-05-04 14:45 40.41390 0.80962 27372 ft 425 kts 228°
2026-05-04 14:45 40.39388 0.78117 27885 ft 424 kts 228°
2026-05-04 14:45 40.37399 0.75278 28420 ft 422 kts 228°
2026-05-04 14:45 40.35419 0.72453 28959 ft 420 kts 228°
2026-05-04 14:46 40.33447 0.69651 29511 ft 418 kts 228°
2026-05-04 14:46 40.31478 0.66861 30051 ft 416 kts 228°
2026-05-04 14:46 40.29515 0.64084 30509 ft 414 kts 228°
2026-05-04 14:46 40.27565 0.61327 30971 ft 412 kts 227°
2026-05-04 14:47 40.25617 0.58578 31413 ft 411 kts 227°
2026-05-04 14:47 40.23672 0.55840 31865 ft 410 kts 227°
2026-05-04 14:47 40.21736 0.53115 32322 ft 408 kts 227°
2026-05-04 14:47 40.19805 0.50397 32757 ft 408 kts 227°
2026-05-04 14:48 40.17876 0.47681 32900 ft 407 kts 228°
2026-05-04 14:48 40.15952 0.44972 32921 ft 406 kts 228°
2026-05-04 14:48 40.12105 0.39568 32928 ft 406 kts 228°
2026-05-04 14:49 40.08227 0.34139 32919 ft 406 kts 227°
2026-05-04 14:49 40.04371 0.28757 32927 ft 406 kts 227°
2026-05-04 14:50 40.00516 0.23374 32924 ft 406 kts 228°
2026-05-04 14:50 39.96662 0.17997 32926 ft 406 kts 228°
2026-05-04 14:51 39.92805 0.12624 32914 ft 406 kts 228°
2026-05-04 14:51 39.88948 0.07260 32912 ft 406 kts 228°
2026-05-04 14:52 39.85087 0.01896 32891 ft 406 kts 228°
2026-05-04 14:52 39.81226 -0.03464 32900 ft 406 kts 228°
2026-05-04 14:53 39.77351 -0.08810 32904 ft 406 kts 228°
2026-05-04 14:53 39.73477 -0.14156 32902 ft 406 kts 228°
2026-05-04 14:54 39.69603 -0.19499 32910 ft 406 kts 228°
2026-05-04 14:54 39.65726 -0.24829 32906 ft 406 kts 228°
2026-05-04 14:55 39.61817 -0.30182 32912 ft 406 kts 228°
2026-05-04 14:55 39.57933 -0.35500 32911 ft 406 kts 228°
2026-05-04 14:56 39.54054 -0.40809 32912 ft 406 kts 228°
2026-05-04 14:56 39.50172 -0.46110 32912 ft 406 kts 228°
2026-05-04 14:57 39.46569 -0.51704 32920 ft 404 kts 233°
2026-05-04 14:57 39.43175 -0.57511 32917 ft 404 kts 233°
2026-05-04 14:58 39.40347 -0.62331 32909 ft 405 kts 233°
2026-05-04 14:58 39.36944 -0.68132 32902 ft 405 kts 233°
2026-05-04 14:59 39.33537 -0.73925 32902 ft 405 kts 233°
2026-05-04 15:00 39.28389 -0.82658 32905 ft 406 kts 233°
2026-05-04 15:00 39.24967 -0.88450 32902 ft 406 kts 233°
2026-05-04 15:01 39.19819 -0.97136 32905 ft 406 kts 233°
2026-05-04 15:01 39.16381 -1.02920 32921 ft 407 kts 233°
2026-05-04 15:02 39.12945 -1.08703 32921 ft 406 kts 233°
2026-05-04 15:02 39.09506 -1.14477 32927 ft 406 kts 233°
2026-05-04 15:03 39.06058 -1.20242 32935 ft 406 kts 233°
2026-05-04 15:03 39.02610 -1.25993 32935 ft 406 kts 233°
2026-05-04 15:04 38.99165 -1.31736 32939 ft 406 kts 233°
2026-05-04 15:04 38.95723 -1.37480 32946 ft 405 kts 233°
2026-05-04 15:05 38.92284 -1.43220 32949 ft 405 kts 233°
2026-05-04 15:05 38.88837 -1.48949 32957 ft 405 kts 233°
2026-05-04 15:06 38.85385 -1.54668 32956 ft 405 kts 233°
2026-05-04 15:07 38.80180 -1.63268 32958 ft 405 kts 233°
2026-05-04 15:07 38.76727 -1.68970 32961 ft 405 kts 233°
2026-05-04 15:08 38.73268 -1.74664 32956 ft 405 kts 233°
2026-05-04 15:08 38.69811 -1.80348 32960 ft 404 kts 233°
2026-05-04 15:09 38.66350 -1.86020 32957 ft 404 kts 233°
2026-05-04 15:09 38.62894 -1.91677 32957 ft 404 kts 233°
2026-05-04 15:10 38.57706 -2.00153 32962 ft 403 kts 233°
2026-05-04 15:11 38.52528 -2.08601 32961 ft 402 kts 233°
2026-05-04 15:11 38.49051 -2.14255 32960 ft 402 kts 233°
2026-05-04 15:12 38.45595 -2.19861 32960 ft 402 kts 233°
2026-05-04 15:12 38.42139 -2.25462 32960 ft 402 kts 233°
2026-05-04 15:13 38.38681 -2.31068 32961 ft 402 kts 234°
2026-05-04 15:13 38.35126 -2.36565 32961 ft 404 kts 229°
2026-05-04 15:14 38.31259 -2.41763 32966 ft 404 kts 229°
2026-05-04 15:14 38.27394 -2.46953 32969 ft 404 kts 230°
2026-05-04 15:15 38.23530 -2.52139 32965 ft 404 kts 230°
2026-05-04 15:15 38.19662 -2.57317 32971 ft 404 kts 229°
2026-05-04 15:16 38.13853 -2.65066 32978 ft 404 kts 229°
2026-05-04 15:17 38.08044 -2.72813 32988 ft 404 kts 229°
2026-05-04 15:17 38.02197 -2.80582 32992 ft 404 kts 229°
2026-05-04 15:18 37.98316 -2.85719 32987 ft 404 kts 229°
2026-05-04 15:19 37.92499 -2.93417 32986 ft 403 kts 229°
2026-05-04 15:19 37.86683 -3.01100 32434 ft 404 kts 229°
2026-05-04 15:20 37.84738 -3.03668 31842 ft 404 kts 229°
2026-05-04 15:20 37.82793 -3.06234 31261 ft 405 kts 229°
2026-05-04 15:20 37.80835 -3.08814 30694 ft 408 kts 229°
2026-05-04 15:20 37.78867 -3.11406 30134 ft 409 kts 229°
2026-05-04 15:21 37.76891 -3.14001 29499 ft 411 kts 229°
2026-05-04 15:21 37.74902 -3.16609 28859 ft 413 kts 229°
2026-05-04 15:21 37.70888 -3.21867 27628 ft 418 kts 229°
2026-05-04 15:22 37.68863 -3.24515 27024 ft 421 kts 229°
2026-05-04 15:22 37.66824 -3.27184 26437 ft 424 kts 229°
2026-05-04 15:22 37.62711 -3.32573 25301 ft 429 kts 229°
2026-05-04 15:23 37.60630 -3.35291 24758 ft 432 kts 229°
2026-05-04 15:23 37.58535 -3.38020 24207 ft 435 kts 229°
2026-05-04 15:23 37.56424 -3.40768 23675 ft 437 kts 228°
2026-05-04 15:23 37.54318 -3.43509 23072 ft 435 kts 228°
2026-05-04 15:24 37.50126 -3.48958 21792 ft 430 kts 228°
2026-05-04 15:24 37.45993 -3.54325 20532 ft 424 kts 228°
2026-05-04 15:25 37.44027 -3.56872 19937 ft 421 kts 228°
2026-05-04 15:25 37.41988 -3.59510 19312 ft 419 kts 228°
2026-05-04 15:25 37.39934 -3.62167 18748 ft 416 kts 229°
2026-05-04 15:26 37.36587 -3.67619 17488 ft 369 kts 236°
2026-05-04 15:26 37.35111 -3.70161 16842 ft 351 kts 236°
2026-05-04 15:26 37.32294 -3.75032 15592 ft 338 kts 236°
2026-05-04 15:27 37.30942 -3.77367 14985 ft 323 kts 236°
2026-05-04 15:27 37.28401 -3.81760 13802 ft 302 kts 236°
2026-05-04 15:28 37.25954 -3.85981 12497 ft 297 kts 236°
2026-05-04 15:28 37.24738 -3.88074 11858 ft 298 kts 236°
2026-05-04 15:28 37.22339 -3.92189 10621 ft 287 kts 236°
2026-05-04 15:29 37.21176 -3.94181 10179 ft 277 kts 236°
2026-05-04 15:30 37.20319 -4.02221 8839 ft 239 kts 304°
2026-05-04 15:30 37.23040 -4.06466 7686 ft 233 kts 306°
2026-05-04 15:31 37.25076 -4.09683 6696 ft 235 kts 306°
2026-05-04 15:31 37.26099 -4.11295 6207 ft 236 kts 306°
2026-05-04 15:32 37.26306 -4.16266 5613 ft 216 kts 228°
2026-05-04 15:32 37.23864 -4.18552 5214 ft 224 kts 208°
2026-05-04 15:33 37.20819 -4.18002 4808 ft 242 kts 142°
2026-05-04 15:34 37.18411 -4.12419 4190 ft 247 kts 105°
2026-05-04 15:34 37.18206 -4.10304 4045 ft 244 kts 92°
2026-05-04 15:34 37.17620 -4.06185 3981 ft 241 kts 118°
2026-05-04 15:35 37.15977 -4.02535 3675 ft 243 kts 121°
2026-05-04 15:35 37.15131 -4.00695 3543 ft 244 kts 117°
2026-05-04 15:35 37.14566 -3.98718 3488 ft 241 kts 109°
2026-05-04 15:36 37.13421 -3.94749 3392 ft 241 kts 110°
2026-05-04 15:36 37.12852 -3.92776 3375 ft 241 kts 109°
2026-05-04 15:36 37.12457 -3.90739 3464 ft 242 kts 98°
2026-05-04 15:37 37.12286 -3.88619 3650 ft 243 kts 95°
2026-05-04 15:37 37.12106 -3.86515 3826 ft 243 kts 95°
2026-05-04 15:37 37.11927 -3.84414 4204 ft 243 kts 94°
2026-05-04 15:37 37.11919 -3.82291 4454 ft 245 kts 86°
2026-05-04 15:38 37.12001 -3.80159 4494 ft 244 kts 85°
2026-05-04 15:38 37.12094 -3.78041 4500 ft 243 kts 86°
2026-05-04 15:38 37.12193 -3.75935 4481 ft 239 kts 85°
2026-05-04 15:38 37.12284 -3.73880 4468 ft 235 kts 85°
2026-05-04 15:39 37.12371 -3.71873 4494 ft 228 kts 86°
2026-05-04 15:39 37.12449 -3.69913 4469 ft 221 kts 85°
2026-05-04 15:39 37.12588 -3.66172 4497 ft 211 kts 86°
2026-05-04 15:40 37.12817 -3.64380 4476 ft 208 kts 66°
2026-05-04 15:40 37.13617 -3.62927 4258 ft 200 kts 36°
2026-05-04 15:40 37.14837 -3.62189 3966 ft 194 kts
2026-05-04 15:40 37.16158 -3.62267 3663 ft 189 kts 341°
2026-05-04 15:41 37.17234 -3.63030 3493 ft 168 kts 315°
2026-05-04 15:41 37.17965 -3.64110 3485 ft 160 kts 306°
2026-05-04 15:41 37.18636 -3.65190 3480 ft 156 kts 301°
2026-05-04 15:41 37.18960 -3.66500 3398 ft 161 kts 273°
2026-05-04 15:42 37.18940 -3.67903 3201 ft 159 kts 270°
2026-05-04 15:42 37.18926 -3.69217 2998 ft 143 kts 270°
2026-05-04 15:42 37.18893 -3.70417 2854 ft 135 kts 272°
2026-05-04 15:42 37.18890 -3.71593 2700 ft 135 kts 270°
2026-05-04 15:43 37.18894 -3.72767 2477 ft 131 kts 270°
2026-05-04 15:43 37.18885 -3.73890 2293 ft 129 kts 272°
2026-05-04 15:43 37.18878 -3.75039 2159 ft 131 kts 271°
2026-05-04 15:43 37.18879 -3.76185 1901 ft 132 kts 272°
2026-05-04 15:44 37.18873 -3.77223 1871 ft 105 kts 270°
2026-05-04 15:44 37.18875 -3.77829 1864 ft 38 kts 269°
2026-05-04 15:44 37.18871 -3.78138 1870 ft 33 kts 269°
2026-05-04 15:44 37.18848 -3.78314 1870 ft 12 kts 251°
2026-05-04 15:45 37.18828 -3.78378 1869 ft 2 kts 248°
2026-05-04 15:45 37.18826 -3.78384 1867 ft 4 kts 246°
2026-05-04 15:45 37.18797 -3.78448 1870 ft 10 kts 239°
2026-05-04 15:45 37.18751 -3.78515 1870 ft 11 kts 202°
2026-05-04 15:46 37.18704 -3.78445 1867 ft 13 kts 92°
2026-05-04 15:46 37.18703 -3.78322 1868 ft 16 kts 89°
2026-05-04 15:46 37.18705 -3.78171 1867 ft 19 kts 89°
2026-05-04 15:46 37.18706 -3.77998 1865 ft 20 kts 90°
2026-05-04 15:47 37.18707 -3.77814 1868 ft 22 kts 89°
2026-05-04 15:47 37.18709 -3.77629 1866 ft 16 kts 88°
2026-05-04 15:47 37.18707 -3.77515 1867 ft 10 kts 111°
2026-05-04 15:47 37.18638 -3.77493 1867 ft 10 kts 180°
2026-05-04 15:48 37.18591 -3.77492 1869 ft 2 kts 178°
2026-05-04 15:48 37.18581 -3.77492 1869 ft 1 kts 179°
2026-05-04 15:48 37.18575 -3.77494 1869 ft 0 kts 201°
2026-05-04 15:49 37.18573 -3.77498 1870 ft 1 kts 232°
2026-05-04 15:49 37.18569 -3.77521 1870 ft 5 kts 259°
2026-05-04 15:49 37.18568 -3.77557 1871 ft 0 kts 268°